[Date Prev][Date Next][Thread Prev][Thread Next] - [Date Index][Thread Index][Author Index]
2 Line ISS Keps 8-24
- Subject: [sarex] 2 Line ISS Keps 8-24
- From: "Dave Larsen PhD" <doc@xxxxxxxxxxx>
- Date: Tue, 24 Aug 2004 04:38:40 -0700
ISS
1 25544U 98067A 04237.32849392 .00013483 00000-0 11235-3 0 5187
2 25544 51.6331 337.8543 0007771 128.0363 349.9660 15.70424362329026
----
Via the sarex mailing list at AMSAT.ORG courtesy of AMSAT-NA.
To unsubscribe, send "unsubscribe sarex" to Majordomo@amsat.org
AMSAT Home